Results By Division


Marshman® Triathlon Presented by Kinetic PT

Race Date: Sunday September 14, 2008
Description: 1/4 Mile Swim~12.5 Mile Bike~2 Mile Run
Race Category: Triathlon
# Entrants in Division: 24

Choose:
 Division
Place
Overall
Place
NameCityStateRace AgeGenderDivisionTimeBib#
View 1 91 Woolery, Eleanor Media PA 34 F 30-34 1:09:54 417
View 2 97 Nerozzi, Michelle Wilmington DE 30 F 30-34 1:10:13 393
View 3 98 Winkis, Annmarie Philadelphia PA 30 F 30-34 1:10:27 402
View 4 181 Singha, Kamini Lemont PA 31 F 30-34 1:16:29 291
View 5 195 Hayes, Meg Havertown PA 32 F 30-34 1:17:25 388
View 6 232 Pelletier, Melissa Pipersville PA 31 F 30-34 1:20:06 442
View 7 247 Duffy, Jeong Philadelphia PA 33 F 30-34 1:21:11 457
View 8 250 Woolery, Tara Media PA 31 F 30-34 1:21:17 418
View 9 317 Casey, Michelle Downingtown PA 32 F 30-34 1:26:34 372
View 10 323 Holst, Susie Washington DC 31 F 30-34 1:26:56 455
View 11 345 Pieragostini, Melissa Mont Clare PA 30 F 30-34 1:28:41 308
View 12 357 Mcfadden, Karri Silver Spring MD 30 F 30-34 1:29:19 341
View 13 367 Rogers, Gwynne Washington DC 34 F 30-34 1:30:04 337
View 14 369 Peterson, Darlene Laurel MD 32 F 30-34 1:30:18 344
View 15 375 Marcase, Tammy York PA 34 F 30-34 1:30:44 306
View 16 379 Wirth, Laura Severna Park MD 34 F 30-34 1:31:02 295
View 17 395 Mcgoey, Mary Flourtown PA 31 F 30-34 1:32:40 444
View 18 396 Lum, Holly Philadelphia PA 32 F 30-34 1:32:40 397
View 19 416 Forster, Jill Flourtown PA 33 F 30-34 1:34:40 346
View 20 430 Schupak, Jessica Ny NY 32 F 30-34 1:37:29 350
View 21 461 Reinhart, Danielle Folsom PA 32 F 30-34 1:45:27 324
View 22 482 Killian, Joyce Philadelphia PA 33 F 30-34 1:58:06 422
View 23 487 Tuteja, Ritu Washington DC 33 F 30-34 2:03:21 413
View 24 493 Stephens, Maryellen Downingtown PA 33 F 30-34 2:28:16 416